| time (UTC) | temp F | wind direction | speed MPH | gust MPH | rain 1hr in | rain 24hr in | rain mn in | humidity % | barometer mb |
| 20260505124537 | 57 | 23 | 4.0 | 10.0 | 0.00 | 0.00 | 0.00 | 67 | 1015.4 |
| 20260505123517 | 57 | 0 | 5.0 | 9.0 | 0.00 | 0.00 | 0.00 | 67 | 1015.4 |
| 20260505122537 | 57 | 45 | 6.0 | 12.0 | 0.00 | 0.00 | 0.00 | 67 | 1015.4 |
| 20260505121537 | 57 | 0 | 5.0 | 11.0 | 0.00 | 0.00 | 0.00 | 67 | 1015.3 |
| 20260505120537 | 57 | 45 | 4.0 | 9.0 | 0.00 | 0.00 | 0.00 | 68 | 1015.4 |
| 20260505115537 | 57 | 45 | 4.0 | 8.0 | 0.00 | 0.00 | 0.00 | 66 | 1015.3 |
| 20260505114517 | 57 | 23 | 5.0 | 10.0 | 0.00 | 0.00 | 0.00 | 67 | 1015.5 |
| 20260505113537 | 57 | 45 | 4.0 | 7.0 | 0.00 | 0.00 | 0.00 | 67 | 1015.4 |
| 20260505112517 | 57 | 45 | 4.0 | 6.0 | 0.00 | 0.00 | 0.00 | 69 | 1015.4 |
| 20260505111517 | 57 | 0 | 4.0 | 8.0 | 0.00 | 0.00 | 0.00 | 68 | 1015.5 |
| 20260505110517 | 58 | 23 | 4.0 | 8.0 | 0.00 | 0.00 | 0.00 | 67 | 1015.5 |
| 20260505101517 | 57 | 23 | 3.0 | 6.0 | 0.00 | 0.00 | 0.00 | 71 | 1015.8 |
| 20260505100557 | 58 | 23 | 3.0 | 8.0 | 0.00 | 0.00 | 0.00 | 69 | 1015.8 |
| 20260505095517 | 58 | 293 | 4.0 | 8.0 | 0.00 | 0.00 | 0.00 | 69 | 1015.9 |
| 20260505094517 | 60 | 45 | 3.0 | 6.0 | 0.00 | 0.00 | 0.00 | 63 | 1015.8 |
| 20260505093517 | 60 | 45 | 5.0 | 9.0 | 0.00 | 0.00 | 0.00 | 63 | 1015.9 |
| 20260505092517 | 60 | 45 | 4.0 | 8.0 | 0.00 | 0.00 | 0.00 | 64 | 1015.9 |
| 20260505091517 | 59 | 23 | 3.0 | 7.0 | 0.00 | 0.00 | 0.00 | 67 | 1015.9 |
| 20260505090517 | 59 | 23 | 5.0 | 10.0 | 0.00 | 0.00 | 0.00 | 66 | 1015.9 |
| 20260505085517 | 59 | 23 | 4.0 | 8.0 | 0.00 | 0.00 | 0.00 | 69 | 1015.9 |
| 20260505084516 | 58 | 23 | 4.0 | 8.0 | 0.00 | 0.00 | 0.00 | 70 | 1016.0 |
| 20260505083517 | 57 | 23 | 4.0 | 8.0 | 0.00 | 0.00 | 0.00 | 73 | 1016.0 |
| 20260505082557 | 55 | 23 | 3.0 | 7.0 | 0.00 | 0.00 | 0.00 | 76 | 1016.0 |
| 20260505081537 | 55 | 23 | 3.0 | 6.0 | 0.00 | 0.00 | 0.00 | 79 | 1016.1 |
| 20260505080517 | 54 | 0 | 2.0 | 5.0 | 0.00 | 0.00 | 0.00 | 80 | 1016.2 |
| 20260505075517 | 55 | 0 | 2.0 | 7.0 | 0.00 | 0.00 | 0.00 | 79 | 1016.3 |
| 20260505074517 | 53 | 0 | 3.0 | 4.0 | 0.00 | 0.00 | 0.00 | 83 | 1016.1 |
| 20260505073516 | 51 | 23 | 2.0 | 5.0 | 0.00 | 0.00 | 0.00 | 85 | 1016.1 |
| 20260505072517 | 49 | 293 | 3.0 | 5.0 | 0.00 | 0.00 | 0.00 | 88 | 1016.1 |
| 20260505071517 | 48 | 0 | 3.0 | 4.0 | 0.00 | 0.00 | 0.00 | 88 | 1016.1 |
| 20260505070536 | 49 | 293 | 2.0 | 4.0 | 0.00 | 0.00 | 0.00 | 88 | 1016.1 |
| 20260505065536 | 49 | 293 | 2.0 | 4.0 | 0.00 | 0.00 | 0.00 | 89 | 1016.3 |
| 20260505064517 | 48 | 0 | 2.0 | 4.0 | 0.00 | 0.00 | 0.00 | 89 | 1016.2 |
| 20260505063516 | 48 | 293 | 2.0 | 4.0 | 0.00 | 0.00 | 0.00 | 90 | 1016.4 |
| 20260505062516 | 47 | 0 | 2.0 | 3.0 | 0.00 | 0.00 | 0.00 | 93 | 1016.2 |
| 20260505061516 | 45 | 315 | 1.0 | 2.0 | 0.00 | 0.00 | 0.00 | 94 | 1016.1 |
| 20260505060516 | 45 | 293 | 1.0 | 3.0 | 0.00 | 0.00 | 0.00 | 94 | 1016.2 |
| 20260505055536 | 44 | 0 | 2.0 | 3.0 | 0.00 | 0.00 | 0.00 | 94 | 1016.1 |
| 20260505054516 | 44 | 23 | 3.0 | 8.0 | 0.00 | 0.00 | 0.00 | 95 | 1016.1 |
| 20260505053516 | 43 | 0 | 2.0 | 4.0 | 0.00 | 0.00 | 0.00 | 95 | 1016.0 |
| 20260505052516 | 43 | 0 | 2.0 | 4.0 | 0.00 | 0.00 | 0.00 | 95 | 1016.2 |
| 20260505051516 | 43 | 315 | 1.0 | 3.0 | 0.00 | 0.00 | 0.00 | 95 | 1016.1 |
| 20260505050516 | 43 | 0 | 1.0 | 3.0 | 0.00 | 0.00 | 0.00 | 95 | 1016.1 |
| 20260505041516 | 43 | 293 | 2.0 | 4.0 | 0.00 | 0.00 | 0.00 | 94 | 1016.0 |
| 20260505040516 | 43 | 293 | 2.0 | 6.0 | 0.00 | 0.00 | 0.00 | 94 | 1015.9 |
| 20260505035518 | 43 | 0 | 1.0 | 3.0 | 0.00 | 0.00 | 0.00 | 93 | 1015.9 |
| 20260505034517 | 44 | 315 | 2.0 | 4.0 | 0.00 | 0.00 | 0.00 | 93 | 1015.9 |
| 20260505033516 | 44 | 293 | 2.0 | 4.0 | 0.00 | 0.00 | 0.00 | 93 | 1015.9 |
| 20260505032517 | 44 | 315 | 2.0 | 4.0 | 0.00 | 0.00 | 0.00 | 93 | 1016.0 |
| 20260505031516 | 45 | 0 | 2.0 | 3.0 | 0.00 | 0.00 | 0.00 | 93 | 1016.0 |
| 20260505030517 | 45 | 0 | 3.0 | 4.0 | 0.00 | 0.00 | 0.00 | 93 | 1016.0 |
| 20260505025516 | 46 | 0 | 3.0 | 5.0 | 0.00 | 0.00 | 0.00 | 94 | 1016.0 |
| 20260505024517 | 47 | 293 | 3.0 | 7.0 | 0.00 | 0.00 | 0.00 | 94 | 1016.0 |
| 20260505023516 | 47 | 0 | 4.0 | 8.0 | 0.00 | 0.00 | 0.00 | 94 | 1016.1 |
| 20260505022516 | 48 | 293 | 4.0 | 7.0 | 0.00 | 0.00 | 0.00 | 94 | 1016.1 |
| 20260505021536 | 48 | 293 | 2.0 | 6.0 | 0.00 | 0.00 | 0.00 | 94 | 1016.1 |
| 20260505020517 | 48 | 0 | 2.0 | 3.0 | 0.00 | 0.00 | 0.00 | 94 | 1016.2 |
| 20260505015516 | 49 | 293 | 2.0 | 3.0 | 0.00 | 0.00 | 0.00 | 95 | 1016.3 |
| 20260505014516 | 49 | 315 | 2.0 | 3.0 | 0.00 | 0.00 | 0.00 | 95 | 1016.3 |
| 20260505013516 | 49 | 0 | 2.0 | 3.0 | 0.00 | 0.00 | 0.00 | 94 | 1016.5 |
| 20260505012516 | 49 | 0 | 2.0 | 3.0 | 0.00 | 0.00 | 0.00 | 94 | 1016.7 |
| 20260505011516 | 49 | 293 | 1.0 | 3.0 | 0.00 | 0.00 | 0.00 | 94 | 1016.5 |
| 20260505010536 | 49 | 293 | 1.0 | 3.0 | 0.00 | 0.00 | 0.00 | 94 | 1016.7 |
| 20260505005557 | 49 | 293 | 1.0 | 2.0 | 0.00 | 0.00 | 0.00 | 94 | 1016.6 |
| 20260505004515 | 49 | 0.0 | 0.0 | 0.00 | 0.00 | 0.00 | 94 | 1016.8 | |
| 20260505003536 | 49 | 0.0 | 1.0 | 0.00 | 0.00 | 0.00 | 94 | 1017.0 | |
| 20260505002515 | 49 | 0.0 | 2.0 | 0.00 | 0.00 | 0.00 | 94 | 1016.9 | |
| 20260505001515 | 49 | 0.0 | 1.0 | 0.00 | 0.00 | 0.00 | 93 | 1017.0 | |
| 20260505000516 | 49 | 293 | 1.0 | 2.0 | 0.00 | 0.00 | 0.00 | 93 | 1016.9 |
| 20260504235515 | 49 | 293 | 1.0 | 3.0 | 0.00 | 0.00 | 0.00 | 93 | 1017.1 |
| 20260504234515 | 49 | 0.0 | 0.0 | 0.00 | 0.00 | 0.00 | 93 | 1017.1 | |
| 20260504233515 | 49 | 0.0 | 0.0 | 0.00 | 0.00 | 0.00 | 94 | 1017.1 | |
| 20260504232515 | 49 | 0.0 | 0.0 | 0.00 | 0.00 | 0.00 | 93 | 1017.1 | |
| 20260504231536 | 49 | 0.0 | 0.0 | 0.00 | 0.00 | 0.00 | 93 | 1017.1 | |
| 20260504230515 | 49 | 0.0 | 0.0 | 0.00 | 0.00 | 0.00 | 92 | 1017.1 | |
| 20260504225535 | 49 | 0.0 | 0.0 | 0.00 | 0.00 | 0.00 | 92 | 1017.2 | |
| 20260504224515 | 49 | 0.0 | 0.0 | 0.00 | 0.00 | 0.00 | 91 | 1017.2 | |
| 20260504223515 | 49 | 0.0 | 0.0 | 0.00 | 0.00 | 0.00 | 91 | 1017.3 | |
| 20260504222515 | 49 | 0.0 | 0.0 | 0.00 | 0.00 | 0.00 | 91 | 1017.4 | |
| 20260504221515 | 49 | 0.0 | 0.0 | 0.00 | 0.00 | 0.00 | 90 | 1017.4 | |
| 20260504220535 | 50 | 0.0 | 0.0 | 0.00 | 0.00 | 0.00 | 89 | 1017.6 | |
| 20260504215516 | 50 | 0.0 | 0.0 | 0.00 | 0.00 | 0.00 | 89 | 1017.5 | |
| 20260504214555 | 51 | 0.0 | 0.0 | 0.00 | 0.00 | 0.00 | 88 | 1017.5 | |
| 20260504213516 | 51 | 0.0 | 0.0 | 0.00 | 0.00 | 0.00 | 88 | 1017.5 | |
| 20260504212516 | 51 | 0.0 | 0.0 | 0.00 | 0.00 | 0.00 | 87 | 1017.3 | |
| 20260504211516 | 52 | 0.0 | 0.0 | 0.00 | 0.00 | 0.00 | 87 | 1017.3 | |
| 20260504210515 | 52 | 0.0 | 0.0 | 0.00 | 0.00 | 0.00 | 87 | 1017.3 | |
| 20260504205516 | 52 | 0.0 | 0.0 | 0.00 | 0.00 | 0.00 | 87 | 1017.5 | |
| 20260504204515 | 52 | 0.0 | 0.0 | 0.00 | 0.00 | 0.00 | 87 | 1017.4 | |
| 20260504203515 | 52 | 0.0 | 0.0 | 0.00 | 0.00 | 0.00 | 87 | 1017.4 | |
| 20260504202515 | 52 | 0.0 | 0.0 | 0.00 | 0.00 | 0.00 | 87 | 1017.4 | |
| 20260504201515 | 52 | 0.0 | 0.0 | 0.00 | 0.00 | 0.00 | 87 | 1017.4 | |
| 20260504200515 | 52 | 0.0 | 2.0 | 0.00 | 0.00 | 0.00 | 87 | 1017.4 | |
| 20260504195515 | 53 | 0 | 1.0 | 2.0 | 0.00 | 0.00 | 0.00 | 87 | 1017.4 |
| 20260504194515 | 53 | 0.0 | 1.0 | 0.00 | 0.00 | 0.00 | 85 | 1017.3 | |
| 20260504193537 | 53 | 0.0 | 1.0 | 0.00 | 0.00 | 0.00 | 85 | 1017.3 | |
| 20260504192517 | 53 | 0.0 | 2.0 | 0.00 | 0.00 | 0.00 | 84 | 1017.1 | |
| 20260504191517 | 53 | 0.0 | 1.0 | 0.00 | 0.00 | 0.00 | 84 | 1017.1 | |
| 20260504190517 | 53 | 45 | 2.0 | 3.0 | 0.00 | 0.00 | 0.00 | 85 | 1017.0 |
| 20260504185517 | 53 | 45 | 1.0 | 3.0 | 0.00 | 0.00 | 0.00 | 84 | 1017.0 |
| 20260504184517 | 53 | 45 | 2.0 | 3.0 | 0.00 | 0.00 | 0.00 | 84 | 1016.9 |
| 20260504183517 | 54 | 45 | 2.0 | 4.0 | 0.00 | 0.00 | 0.00 | 83 | 1016.8 |
| 20260504182517 | 54 | 45 | 2.0 | 4.0 | 0.00 | 0.00 | 0.00 | 84 | 1016.9 |
| 20260504181517 | 54 | 45 | 1.0 | 3.0 | 0.00 | 0.00 | 0.00 | 83 | 1016.8 |
| 20260504180517 | 54 | 0.0 | 2.0 | 0.00 | 0.00 | 0.00 | 83 | 1016.8 | |
| 20260504175517 | 54 | 68 | 1.0 | 2.0 | 0.00 | 0.00 | 0.00 | 82 | 1016.8 |
| 20260504174517 | 54 | 0.0 | 1.0 | 0.00 | 0.00 | 0.00 | 81 | 1016.9 | |
| 20260504173517 | 54 | 0.0 | 2.0 | 0.00 | 0.00 | 0.00 | 82 | 1016.9 | |
| 20260504172517 | 54 | 0.0 | 4.0 | 0.00 | 0.00 | 0.00 | 82 | 1017.0 | |
| 20260504171517 | 55 | 0.0 | 3.0 | 0.00 | 0.00 | 0.00 | 82 | 1017.0 | |
| 20260504170517 | 54 | 0.0 | 2.0 | 0.00 | 0.00 | 0.00 | 81 | 1017.2 | |
| 20260504150517 | 54 | 45 | 1.0 | 3.0 | 0.00 | 0.00 | 0.00 | 82 | 1017.2 |
| 20260504140516 | 55 | 0.0 | 3.0 | 0.00 | 0.00 | 0.00 | 81 | 1017.4 |